Location: Breungeshain
(50.5000°N, 9.2000°E)
Time: 09:48:08
(UTC+00:00)

ISS - Pass Details

Date: 25 May 2017
Orbit: 402 x 409 km, 51.6° (Epoch: 24 May)

Event Time Altitude Azimuth Distance (km) Brightness Sun altitude
Rises 22:11:42 0° 261° (W) 2,330 0.1 -16.8°
Reaches altitude 10° 22:13:47 10° 262° (W) 1,470 -0.9 -16.9°
Maximum altitude 22:17:05 79° 350° (N) 419 -3.8 -17.0°
Drops below altitude 10° 22:20:23 10° 78° (ENE) 1,469 -1.0 -17.2°
Sets 22:22:28 0° 79° (E) 2,328 0.0 -17.3°
